Location: Newark
(44.9861°N, 0.2536°E)
Time: 19:44:09
(UTC+00:00)

HuskySat-1 - Pass Details

Date: 16 July 2020
Orbit: 457 x 471 km, 51.6° (Epoch: 11 August)

Event Time Altitude Azimuth Distance (km) Brightness Sun altitude
Rises 01:47:31 0° 292° (WNW) 2,494 ? -19.7°
Reaches altitude 10° 01:49:52 10° 304° (NW) 1,615 ? -19.5°
Maximum altitude 01:53:05 29° 6° (N) 882 ? -19.3°
Drops below altitude 10° 01:56:17 10° 69° (ENE) 1,606 ? -19.0°
Sets 01:58:37 0° 81° (E) 2,477 ? -18.8°
